contact:dominique.lefevre@mio.osupytheas.fr, maurice.libes@osupytheas.fr, didier.mallarino@osupytheas.fr
Project:EMSO http://www.emso-fr.org/EMSO-France
Depth: 2436.0 m
Title:EMSO Ligure Ouest : Data MII capteur MICROCAT
DateTime_Computer,Latitude,Longitude,Temperature,Conductivity,Pressure,DateTime_Instrument
DateTime_Computer,Latitude,Longitude,degC,S m-1,dbar,DateTime_Instrument
2023-07-09T00:01:15Z,42.805,6.029,13.3024,4.60081,2470.871,2023-7-09T02:03:31Z
2023-07-09T00:04:18Z,42.805,6.029,13.3021,4.60086,2470.857,2023-7-09T02:06:34Z
2023-07-09T00:07:21Z,42.805,6.029,13.3026,4.60081,2470.871,2023-7-09T02:09:37Z
2023-07-09T00:10:24Z,42.805,6.029,13.3022,4.60083,2470.857,2023-7-09T02:12:40Z
2023-07-09T00:13:27Z,42.805,6.029,13.3026,4.60081,2470.917,2023-7-09T02:15:43Z
2023-07-09T00:16:30Z,42.805,6.029,13.3025,4.60081,2470.847,2023-7-09T02:18:46Z
2023-07-09T00:19:33Z,42.805,6.029,13.3023,4.60084,2470.857,2023-7-09T02:21:49Z
2023-07-09T00:22:36Z,42.805,6.029,13.3025,4.60082,2470.871,2023-7-09T02:24:53Z
2023-07-09T00:25:40Z,42.805,6.029,13.3022,4.60081,2470.833,2023-7-09T02:27:56Z
2023-07-09T00:28:43Z,42.805,6.029,13.3021,4.60081,2470.871,2023-7-09T02:30:59Z
2023-07-09T00:31:46Z,42.805,6.029,13.3023,4.60081,2470.857,2023-7-09T02:34:02Z
2023-07-09T00:34:49Z,42.805,6.029,13.3024,4.60081,2470.833,2023-7-09T02:37:05Z
2023-07-09T00:37:52Z,42.805,6.029,13.3021,4.60082,2470.857,2023-7-09T02:40:08Z
2023-07-09T00:40:55Z,42.805,6.029,13.3021,4.60082,2470.81,2023-7-09T02:43:11Z
2023-07-09T00:43:58Z,42.805,6.029,13.3025,4.60082,2470.833,2023-7-09T02:46:14Z
2023-07-09T00:47:01Z,42.805,6.029,13.3024,4.60081,2470.847,2023-7-09T02:49:17Z
2023-07-09T00:50:04Z,42.805,6.029,13.3024,4.60081,2470.857,2023-7-09T02:52:20Z
2023-07-09T00:53:07Z,42.805,6.029,13.3024,4.60081,2470.894,2023-7-09T02:55:23Z
2023-07-09T00:56:10Z,42.805,6.029,13.3021,4.60081,2470.857,2023-7-09T02:58:26Z
2023-07-09T00:59:13Z,42.805,6.029,13.3024,4.60083,2470.833,2023-7-09T03:01:30Z
2023-07-09T01:02:16Z,42.805,6.029,13.3027,4.60087,2470.847,2023-7-09T03:04:33Z
2023-07-09T01:05:19Z,42.805,6.029,13.3024,4.60082,2470.871,2023-7-09T03:07:36Z
2023-07-09T01:08:23Z,42.805,6.029,13.3022,4.60081,2470.833,2023-7-09T03:10:39Z
2023-07-09T01:11:26Z,42.805,6.029,13.3023,4.60082,2470.871,2023-7-09T03:13:42Z
2023-07-09T01:14:29Z,42.805,6.029,13.3026,4.60081,2470.847,2023-7-09T03:16:45Z
2023-07-09T01:17:32Z,42.805,6.029,13.3023,4.60081,2470.847,2023-7-09T03:19:48Z
2023-07-09T01:20:35Z,42.805,6.029,13.3021,4.60081,2470.847,2023-7-09T03:22:51Z
2023-07-09T01:23:38Z,42.805,6.029,13.3023,4.60085,2470.81,2023-7-09T03:25:54Z
2023-07-09T01:26:41Z,42.805,6.029,13.3022,4.60081,2470.88,2023-7-09T03:28:57Z
2023-07-09T01:29:44Z,42.805,6.029,13.3023,4.60081,2470.847,2023-7-09T03:32:00Z
2023-07-09T01:32:47Z,42.805,6.029,13.3026,4.60081,2470.787,2023-7-09T03:35:03Z
2023-07-09T01:35:50Z,42.805,6.029,13.3026,4.60081,2470.847,2023-7-09T03:38:06Z
2023-07-09T01:38:53Z,42.805,6.029,13.3021,4.60081,2470.81,2023-7-09T03:41:10Z
2023-07-09T01:41:56Z,42.805,6.029,13.3025,4.60081,2470.833,2023-7-09T03:44:13Z
2023-07-09T01:45:00Z,42.805,6.029,13.3024,4.60081,2470.833,2023-7-09T03:47:16Z
2023-07-09T01:48:03Z,42.805,6.029,13.3025,4.60082,2470.8,2023-7-09T03:50:19Z
2023-07-09T01:51:06Z,42.805,6.029,13.3026,4.60081,2470.787,2023-7-09T03:53:22Z
2023-07-09T01:54:09Z,42.805,6.029,13.3024,4.60081,2470.8,2023-7-09T03:56:25Z
2023-07-09T01:57:12Z,42.805,6.029,13.3024,4.60081,2470.824,2023-7-09T03:59:28Z
2023-07-09T02:00:15Z,42.805,6.029,13.3026,4.60081,2470.763,2023-7-09T04:02:31Z
2023-07-09T02:03:18Z,42.805,6.029,13.3024,4.60084,2470.787,2023-7-09T04:05:34Z
2023-07-09T02:06:21Z,42.805,6.029,13.3021,4.60081,2470.8,2023-7-09T04:08:37Z
2023-07-09T02:09:24Z,42.805,6.029,13.3026,4.60081,2470.777,2023-7-09T04:11:40Z
2023-07-09T02:12:27Z,42.805,6.029,13.3026,4.60081,2470.8,2023-7-09T04:14:43Z
2023-07-09T02:15:30Z,42.805,6.029,13.3024,4.60081,2470.81,2023-7-09T04:17:46Z
2023-07-09T02:18:33Z,42.805,6.029,13.3023,4.60082,2470.81,2023-7-09T04:20:50Z
2023-07-09T02:21:36Z,42.805,6.029,13.3022,4.60080,2470.81,2023-7-09T04:23:53Z
2023-07-09T02:24:40Z,42.805,6.029,13.3020,4.60081,2470.787,2023-7-09T04:26:56Z
2023-07-09T02:27:43Z,42.805,6.029,13.3022,4.60081,2470.833,2023-7-09T04:29:59Z
2023-07-09T02:30:46Z,42.805,6.029,13.3022,4.60081,2470.763,2023-7-09T04:33:02Z
2023-07-09T02:33:49Z,42.805,6.029,13.3024,4.60081,2470.763,2023-7-09T04:36:05Z
2023-07-09T02:36:52Z,42.805,6.029,13.3024,4.60080,2470.787,2023-7-09T04:39:08Z
2023-07-09T02:39:55Z,42.805,6.029,13.3025,4.60081,2470.81,2023-7-09T04:42:11Z
2023-07-09T02:42:58Z,42.805,6.029,13.3025,4.60080,2470.763,2023-7-09T04:45:14Z
2023-07-09T02:46:01Z,42.805,6.029,13.3021,4.60081,2470.763,2023-7-09T04:48:17Z
2023-07-09T02:49:04Z,42.805,6.029,13.3021,4.60081,2470.81,2023-7-09T04:51:20Z
2023-07-09T02:52:07Z,42.805,6.029,13.3021,4.60080,2470.763,2023-7-09T04:54:23Z
2023-07-09T02:55:10Z,42.805,6.029,13.3021,4.60080,2470.763,2023-7-09T04:57:26Z
2023-07-09T02:58:13Z,42.805,6.029,13.3023,4.60080,2470.8,2023-7-09T05:00:30Z
2023-07-09T03:01:16Z,42.805,6.029,13.3021,4.60080,2470.824,2023-7-09T05:03:33Z
2023-07-09T03:04:20Z,42.805,6.029,13.3018,4.60081,2470.763,2023-7-09T05:06:36Z
2023-07-09T03:07:23Z,42.805,6.029,13.3024,4.60081,2470.763,2023-7-09T05:09:39Z
2023-07-09T03:10:26Z,42.805,6.029,13.3020,4.60080,2470.74,2023-7-09T05:12:42Z
2023-07-09T03:13:29Z,42.805,6.029,13.3021,4.60080,2470.74,2023-7-09T05:15:45Z
2023-07-09T03:16:32Z,42.805,6.029,13.3019,4.60081,2470.74,2023-7-09T05:18:48Z
2023-07-09T03:19:35Z,42.805,6.029,13.3024,4.60080,2470.73,2023-7-09T05:21:51Z
2023-07-09T03:22:38Z,42.805,6.029,13.3019,4.60080,2470.73,2023-7-09T05:24:54Z
2023-07-09T03:25:41Z,42.805,6.029,13.3022,4.60080,2470.763,2023-7-09T05:27:57Z
2023-07-09T03:28:44Z,42.805,6.029,13.3021,4.60081,2470.74,2023-7-09T05:31:00Z
2023-07-09T03:31:47Z,42.805,6.029,13.3027,4.60080,2470.754,2023-7-09T05:34:03Z
2023-07-09T03:34:50Z,42.805,6.029,13.3027,4.60080,2470.74,2023-7-09T05:37:06Z
2023-07-09T03:37:53Z,42.805,6.029,13.3024,4.60080,2470.717,2023-7-09T05:40:10Z
2023-07-09T03:40:57Z,42.805,6.029,13.3024,4.60080,2470.717,2023-7-09T05:43:13Z
2023-07-09T03:44:00Z,42.805,6.029,13.3023,4.60081,2470.74,2023-7-09T05:46:16Z
2023-07-09T03:47:03Z,42.805,6.029,13.3021,4.60081,2470.73,2023-7-09T05:49:19Z
2023-07-09T03:50:06Z,42.805,6.029,13.3020,4.60081,2470.73,2023-7-09T05:52:22Z
2023-07-09T03:53:09Z,42.805,6.029,13.3021,4.60081,2470.754,2023-7-09T05:55:25Z
2023-07-09T03:56:12Z,42.805,6.029,13.3025,4.60080,2470.717,2023-7-09T05:58:28Z
2023-07-09T03:59:15Z,42.805,6.029,13.3023,4.60081,2470.74,2023-7-09T06:01:31Z
2023-07-09T04:02:18Z,42.805,6.029,13.3024,4.60081,2470.74,2023-7-09T06:04:34Z
2023-07-09T04:05:21Z,42.805,6.029,13.3024,4.60080,2470.717,2023-7-09T06:07:37Z
2023-07-09T04:08:24Z,42.805,6.029,13.3025,4.60081,2470.74,2023-7-09T06:10:40Z
2023-07-09T04:11:27Z,42.805,6.029,13.3021,4.60082,2470.707,2023-7-09T06:13:43Z
2023-07-09T04:14:30Z,42.805,6.029,13.3023,4.60081,2470.693,2023-7-09T06:16:47Z
2023-07-09T04:17:33Z,42.805,6.029,13.3022,4.60081,2470.744,2023-7-09T06:19:50Z
2023-07-09T04:20:36Z,42.805,6.029,13.3026,4.60081,2470.693,2023-7-09T06:22:53Z
2023-07-09T04:23:40Z,42.805,6.029,13.3021,4.60081,2470.693,2023-7-09T06:25:56Z
2023-07-09T04:26:43Z,42.805,6.029,13.3022,4.60081,2470.707,2023-7-09T06:28:59Z
2023-07-09T04:29:46Z,42.805,6.029,13.3026,4.60081,2470.67,2023-7-09T06:32:02Z
2023-07-09T04:32:49Z,42.805,6.029,13.3023,4.60081,2470.717,2023-7-09T06:35:05Z
2023-07-09T04:35:52Z,42.805,6.029,13.3026,4.60081,2470.717,2023-7-09T06:38:08Z
2023-07-09T04:38:55Z,42.805,6.029,13.3023,4.60081,2470.693,2023-7-09T06:41:11Z
2023-07-09T04:41:58Z,42.805,6.029,13.3024,4.60081,2470.67,2023-7-09T06:44:14Z
2023-07-09T04:45:01Z,42.805,6.029,13.3024,4.60081,2470.684,2023-7-09T06:47:17Z
2023-07-09T04:48:04Z,42.805,6.029,13.3025,4.60081,2470.646,2023-7-09T06:50:20Z
2023-07-09T04:51:07Z,42.805,6.029,13.3026,4.60080,2470.717,2023-7-09T06:53:23Z
2023-07-09T04:54:10Z,42.805,6.029,13.3024,4.60080,2470.684,2023-7-09T06:56:27Z
2023-07-09T04:57:13Z,42.805,6.029,13.3024,4.60082,2470.67,2023-7-09T06:59:30Z
2023-07-09T05:00:17Z,42.805,6.029,13.3021,4.60082,2470.707,2023-7-09T07:02:33Z
2023-07-09T05:03:20Z,42.805,6.029,13.3021,4.60084,2470.67,2023-7-09T07:05:36Z
2023-07-09T05:06:23Z,42.805,6.029,13.3021,4.60081,2470.67,2023-7-09T07:08:39Z
2023-07-09T05:09:26Z,42.805,6.029,13.3024,4.60081,2470.67,2023-7-09T07:11:42Z
2023-07-09T05:12:29Z,42.805,6.029,13.3024,4.60082,2470.67,2023-7-09T07:14:45Z
2023-07-09T05:15:32Z,42.805,6.029,13.3024,4.60085,2470.661,2023-7-09T07:17:48Z
2023-07-09T05:18:35Z,42.805,6.029,13.3022,4.60081,2470.646,2023-7-09T07:20:51Z
2023-07-09T05:21:38Z,42.805,6.029,13.3025,4.60082,2470.67,2023-7-09T07:23:54Z
2023-07-09T05:24:41Z,42.805,6.029,13.3025,4.60083,2470.67,2023-7-09T07:26:57Z
2023-07-09T05:27:44Z,42.805,6.029,13.3019,4.60081,2470.693,2023-7-09T07:30:00Z
2023-07-09T05:30:47Z,42.805,6.029,13.3026,4.60084,2470.67,2023-7-09T07:33:03Z
2023-07-09T05:33:50Z,42.805,6.029,13.3025,4.60082,2470.684,2023-7-09T07:36:07Z
2023-07-09T05:36:53Z,42.805,6.029,13.3025,4.60081,2470.646,2023-7-09T07:39:10Z
2023-07-09T05:39:57Z,42.805,6.029,13.3026,4.60081,2470.707,2023-7-09T07:42:13Z
2023-07-09T05:43:00Z,42.805,6.029,13.3024,4.60081,2470.693,2023-7-09T07:45:16Z
2023-07-09T05:46:03Z,42.805,6.029,13.3027,4.60084,2470.646,2023-7-09T07:48:19Z
2023-07-09T05:49:06Z,42.805,6.029,13.3024,4.60082,2470.646,2023-7-09T07:51:22Z
2023-07-09T05:52:09Z,42.805,6.029,13.3026,4.60083,2470.646,2023-7-09T07:54:25Z
2023-07-09T05:55:12Z,42.805,6.029,13.3021,4.60082,2470.646,2023-7-09T07:57:28Z
2023-07-09T05:58:15Z,42.805,6.029,13.3024,4.60082,2470.67,2023-7-09T08:00:31Z
2023-07-09T06:01:18Z,42.805,6.029,13.3029,4.60083,2470.637,2023-7-09T08:03:34Z
2023-07-09T06:04:21Z,42.805,6.029,13.3024,4.60083,2470.693,2023-7-09T08:06:37Z
2023-07-09T06:07:24Z,42.805,6.029,13.3024,4.60082,2470.684,2023-7-09T08:09:40Z
2023-07-09T06:10:27Z,42.805,6.029,13.3025,4.60084,2470.624,2023-7-09T08:12:43Z
2023-07-09T06:13:30Z,42.805,6.029,13.3026,4.60083,2470.646,2023-7-09T08:15:47Z
2023-07-09T06:16:34Z,42.805,6.029,13.3027,4.60084,2470.684,2023-7-09T08:18:50Z
2023-07-09T06:19:37Z,42.805,6.029,13.3026,4.60084,2470.661,2023-7-09T08:21:53Z
2023-07-09T06:22:40Z,42.805,6.029,13.3022,4.60084,2470.646,2023-7-09T08:24:56Z
2023-07-09T06:25:43Z,42.805,6.029,13.3028,4.60084,2470.67,2023-7-09T08:27:59Z
2023-07-09T06:28:46Z,42.805,6.029,13.3026,4.60083,2470.646,2023-7-09T08:31:02Z
2023-07-09T06:31:48Z,42.805,6.029,13.3029,4.60084,2470.67,2023-7-09T08:34:04Z
2023-07-09T06:34:51Z,42.805,6.029,13.3024,4.60086,2470.67,2023-7-09T08:37:07Z
2023-07-09T06:37:54Z,42.805,6.029,13.3026,4.60084,2470.684,2023-7-09T08:40:10Z
2023-07-09T06:40:57Z,42.805,6.029,13.3023,4.60084,2470.646,2023-7-09T08:43:13Z
2023-07-09T06:44:00Z,42.805,6.029,13.3021,4.60084,2470.637,2023-7-09T08:46:16Z
2023-07-09T06:47:03Z,42.805,6.029,13.3028,4.60087,2470.624,2023-7-09T08:49:19Z
2023-07-09T06:50:06Z,42.805,6.029,13.3026,4.60084,2470.646,2023-7-09T08:52:23Z
2023-07-09T06:53:09Z,42.805,6.029,13.3025,4.60083,2470.624,2023-7-09T08:55:26Z
2023-07-09T06:56:13Z,42.805,6.029,13.3026,4.60084,2470.661,2023-7-09T08:58:29Z
2023-07-09T06:59:16Z,42.805,6.029,13.3025,4.60082,2470.646,2023-7-09T09:01:32Z
2023-07-09T07:02:19Z,42.805,6.029,13.3021,4.60084,2470.67,2023-7-09T09:04:35Z
2023-07-09T07:05:22Z,42.805,6.029,13.3030,4.60084,2470.646,2023-7-09T09:07:38Z
2023-07-09T07:08:25Z,42.805,6.029,13.3027,4.60087,2470.661,2023-7-09T09:10:41Z
2023-07-09T07:11:28Z,42.805,6.029,13.3025,4.60085,2470.67,2023-7-09T09:13:44Z
2023-07-09T07:14:31Z,42.805,6.029,13.3026,4.60084,2470.67,2023-7-09T09:16:47Z
2023-07-09T07:17:34Z,42.805,6.029,13.3024,4.60089,2470.624,2023-7-09T09:19:50Z
2023-07-09T07:20:37Z,42.805,6.029,13.3025,4.60084,2470.67,2023-7-09T09:22:53Z
2023-07-09T07:23:40Z,42.805,6.029,13.3026,4.60082,2470.624,2023-7-09T09:25:56Z
2023-07-09T07:26:43Z,42.805,6.029,13.3025,4.60084,2470.646,2023-7-09T09:28:59Z
2023-07-09T07:29:46Z,42.805,6.029,13.3024,4.60083,2470.624,2023-7-09T09:32:03Z
2023-07-09T07:32:49Z,42.805,6.029,13.3024,4.60083,2470.646,2023-7-09T09:35:06Z
2023-07-09T07:35:53Z,42.805,6.029,13.3023,4.60084,2470.661,2023-7-09T09:38:09Z
2023-07-09T07:38:56Z,42.805,6.029,13.3024,4.60084,2470.646,2023-7-09T09:41:12Z
2023-07-09T07:41:59Z,42.805,6.029,13.3024,4.60084,2470.661,2023-7-09T09:44:15Z
2023-07-09T07:45:02Z,42.805,6.029,13.3024,4.60084,2470.693,2023-7-09T09:47:18Z
2023-07-09T07:48:05Z,42.805,6.029,13.3028,4.60085,2470.661,2023-7-09T09:50:21Z
2023-07-09T07:51:08Z,42.805,6.029,13.3026,4.60085,2470.624,2023-7-09T09:53:24Z
2023-07-09T07:54:11Z,42.805,6.029,13.3024,4.60091,2470.646,2023-7-09T09:56:27Z
2023-07-09T07:57:14Z,42.805,6.029,13.3022,4.60084,2470.693,2023-7-09T09:59:30Z
2023-07-09T08:00:17Z,42.805,6.029,13.3024,4.60085,2470.684,2023-7-09T10:02:33Z
2023-07-09T08:03:20Z,42.805,6.029,13.3025,4.60084,2470.646,2023-7-09T10:05:36Z
2023-07-09T08:06:23Z,42.805,6.029,13.3023,4.60086,2470.67,2023-7-09T10:08:39Z
2023-07-09T08:09:26Z,42.805,6.029,13.3026,4.60084,2470.661,2023-7-09T10:11:43Z
2023-07-09T08:12:29Z,42.805,6.029,13.3026,4.60084,2470.67,2023-7-09T10:14:46Z
2023-07-09T08:15:33Z,42.805,6.029,13.3027,4.60084,2470.67,2023-7-09T10:17:49Z
2023-07-09T08:18:36Z,42.805,6.029,13.3025,4.60084,2470.684,2023-7-09T10:20:52Z
2023-07-09T08:21:39Z,42.805,6.029,13.3028,4.60095,2470.67,2023-7-09T10:23:55Z
2023-07-09T08:24:42Z,42.805,6.029,13.3024,4.60089,2470.684,2023-7-09T10:26:58Z
2023-07-09T08:27:45Z,42.805,6.029,13.3025,4.60084,2470.67,2023-7-09T10:30:01Z
2023-07-09T08:30:47Z,42.805,6.029,13.3026,4.60087,2470.67,2023-7-09T10:33:03Z
2023-07-09T08:33:50Z,42.805,6.029,13.3024,4.60084,2470.693,2023-7-09T10:36:06Z
2023-07-09T08:36:53Z,42.805,6.029,13.3026,4.60084,2470.684,2023-7-09T10:39:09Z
2023-07-09T08:39:56Z,42.805,6.029,13.3025,4.60085,2470.67,2023-7-09T10:42:12Z
2023-07-09T08:42:59Z,42.805,6.029,13.3026,4.60086,2470.684,2023-7-09T10:45:15Z
2023-07-09T08:46:02Z,42.805,6.029,13.3026,4.60086,2470.646,2023-7-09T10:48:18Z
2023-07-09T08:49:05Z,42.805,6.029,13.3029,4.60086,2470.707,2023-7-09T10:51:21Z
2023-07-09T08:52:08Z,42.805,6.029,13.3027,4.60085,2470.646,2023-7-09T10:54:24Z
2023-07-09T08:55:11Z,42.805,6.029,13.3023,4.60084,2470.693,2023-7-09T10:57:27Z
2023-07-09T08:58:14Z,42.805,6.029,13.3026,4.60085,2470.693,2023-7-09T11:00:30Z
2023-07-09T09:01:17Z,42.805,6.029,13.3029,4.60085,2470.684,2023-7-09T11:03:34Z
2023-07-09T09:04:20Z,42.805,6.029,13.3025,4.60084,2470.693,2023-7-09T11:06:37Z
2023-07-09T09:07:24Z,42.805,6.029,13.3029,4.60086,2470.717,2023-7-09T11:09:40Z
2023-07-09T09:10:27Z,42.805,6.029,13.3021,4.60086,2470.661,2023-7-09T11:12:43Z
2023-07-09T09:13:30Z,42.805,6.029,13.3029,4.60088,2470.717,2023-7-09T11:15:46Z
2023-07-09T09:16:33Z,42.805,6.029,13.3025,4.60084,2470.67,2023-7-09T11:18:49Z
2023-07-09T09:19:36Z,42.805,6.029,13.3029,4.60089,2470.717,2023-7-09T11:21:52Z
2023-07-09T09:22:39Z,42.805,6.029,13.3027,4.60087,2470.707,2023-7-09T11:24:55Z
2023-07-09T09:25:42Z,42.805,6.029,13.3024,4.60091,2470.717,2023-7-09T11:27:58Z
2023-07-09T09:28:45Z,42.805,6.029,13.3024,4.60085,2470.707,2023-7-09T11:31:01Z
2023-07-09T09:31:48Z,42.805,6.029,13.3028,4.60087,2470.707,2023-7-09T11:34:04Z
2023-07-09T09:34:51Z,42.805,6.029,13.3026,4.60084,2470.73,2023-7-09T11:37:07Z
2023-07-09T09:37:54Z,42.805,6.029,13.3026,4.60084,2470.693,2023-7-09T11:40:11Z
2023-07-09T09:40:57Z,42.805,6.029,13.3027,4.60084,2470.693,2023-7-09T11:43:14Z
2023-07-09T09:44:01Z,42.805,6.029,13.3022,4.60092,2470.717,2023-7-09T11:46:17Z
2023-07-09T09:47:04Z,42.805,6.029,13.3026,4.60085,2470.717,2023-7-09T11:49:20Z
2023-07-09T09:50:07Z,42.805,6.029,13.3025,4.60085,2470.693,2023-7-09T11:52:23Z
2023-07-09T09:53:10Z,42.805,6.029,13.3024,4.60086,2470.693,2023-7-09T11:55:26Z
2023-07-09T09:56:13Z,42.805,6.029,13.3024,4.60085,2470.693,2023-7-09T11:58:29Z
2023-07-09T09:59:16Z,42.805,6.029,13.3028,4.60086,2470.717,2023-7-09T12:01:32Z
2023-07-09T10:02:19Z,42.805,6.029,13.3030,4.60086,2470.74,2023-7-09T12:04:35Z
2023-07-09T10:05:22Z,42.805,6.029,13.3028,4.60087,2470.717,2023-7-09T12:07:38Z
2023-07-09T10:08:25Z,42.805,6.029,13.3024,4.60089,2470.717,2023-7-09T12:10:41Z
2023-07-09T10:11:28Z,42.805,6.029,13.3026,4.60087,2470.693,2023-7-09T12:13:44Z
2023-07-09T10:14:31Z,42.805,6.029,13.3027,4.60087,2470.754,2023-7-09T12:16:48Z
2023-07-09T10:17:34Z,42.805,6.029,13.3024,4.60086,2470.73,2023-7-09T12:19:51Z
2023-07-09T10:20:38Z,42.805,6.029,13.3026,4.60089,2470.707,2023-7-09T12:22:54Z
2023-07-09T10:23:41Z,42.805,6.029,13.3029,4.60086,2470.717,2023-7-09T12:25:57Z
2023-07-09T10:26:44Z,42.805,6.029,13.3026,4.60087,2470.717,2023-7-09T12:29:00Z
2023-07-09T10:29:47Z,42.805,6.029,13.3026,4.60086,2470.754,2023-7-09T12:32:03Z
2023-07-09T10:32:50Z,42.805,6.029,13.3024,4.60087,2470.74,2023-7-09T12:35:06Z
2023-07-09T10:35:53Z,42.805,6.029,13.3027,4.60086,2470.73,2023-7-09T12:38:09Z
2023-07-09T10:38:56Z,42.805,6.029,13.3025,4.60087,2470.73,2023-7-09T12:41:12Z
2023-07-09T10:41:59Z,42.805,6.029,13.3026,4.60088,2470.74,2023-7-09T12:44:15Z
2023-07-09T10:45:02Z,42.805,6.029,13.3028,4.60086,2470.717,2023-7-09T12:47:18Z
2023-07-09T10:48:05Z,42.805,6.029,13.3025,4.60086,2470.73,2023-7-09T12:50:21Z
2023-07-09T10:51:08Z,42.805,6.029,13.3024,4.60085,2470.74,2023-7-09T12:53:25Z
2023-07-09T10:54:11Z,42.805,6.029,13.3024,4.60085,2470.763,2023-7-09T12:56:28Z
2023-07-09T10:57:15Z,42.805,6.029,13.3029,4.60089,2470.74,2023-7-09T12:59:31Z
2023-07-09T11:00:18Z,42.805,6.029,13.3029,4.60087,2470.74,2023-7-09T13:02:34Z
2023-07-09T11:03:21Z,42.805,6.029,13.3029,4.60087,2470.763,2023-7-09T13:05:37Z
2023-07-09T11:06:24Z,42.805,6.029,13.3022,4.60087,2470.763,2023-7-09T13:08:40Z
2023-07-09T11:09:27Z,42.805,6.029,13.3026,4.60087,2470.74,2023-7-09T13:11:43Z
2023-07-09T11:12:30Z,42.805,6.029,13.3028,4.60088,2470.754,2023-7-09T13:14:46Z
2023-07-09T11:15:33Z,42.805,6.029,13.3028,4.60088,2470.73,2023-7-09T13:17:49Z
2023-07-09T11:18:36Z,42.805,6.029,13.3026,4.60087,2470.754,2023-7-09T13:20:52Z
2023-07-09T11:21:39Z,42.805,6.029,13.3029,4.60087,2470.74,2023-7-09T13:23:55Z
2023-07-09T11:24:42Z,42.805,6.029,13.3030,4.60089,2470.74,2023-7-09T13:26:58Z
2023-07-09T11:27:45Z,42.805,6.029,13.3026,4.60087,2470.717,2023-7-09T13:30:02Z
2023-07-09T11:30:48Z,42.805,6.029,13.3029,4.60089,2470.74,2023-7-09T13:33:05Z
2023-07-09T11:33:52Z,42.805,6.029,13.3026,4.60099,2470.74,2023-7-09T13:36:08Z
2023-07-09T11:36:55Z,42.805,6.029,13.3030,4.60087,2470.73,2023-7-09T13:39:11Z
2023-07-09T11:39:58Z,42.805,6.029,13.3024,4.60087,2470.74,2023-7-09T13:42:14Z
2023-07-09T11:43:01Z,42.805,6.029,13.3031,4.60088,2470.717,2023-7-09T13:45:17Z
2023-07-09T11:46:04Z,42.805,6.029,13.3031,4.60088,2470.73,2023-7-09T13:48:20Z
2023-07-09T11:49:07Z,42.805,6.029,13.3030,4.60089,2470.74,2023-7-09T13:51:23Z
2023-07-09T11:52:10Z,42.805,6.029,13.3024,4.60088,2470.717,2023-7-09T13:54:26Z
2023-07-09T11:55:13Z,42.805,6.029,13.3029,4.60088,2470.717,2023-7-09T13:57:29Z
2023-07-09T11:58:16Z,42.805,6.029,13.3031,4.60088,2470.74,2023-7-09T14:00:32Z
2023-07-09T12:01:19Z,42.805,6.029,13.3033,4.60087,2470.73,2023-7-09T14:03:35Z
2023-07-09T12:04:22Z,42.805,6.029,13.3025,4.60087,2470.73,2023-7-09T14:06:39Z
2023-07-09T12:07:25Z,42.805,6.029,13.3026,4.60087,2470.74,2023-7-09T14:09:42Z
2023-07-09T12:10:29Z,42.805,6.029,13.3027,4.60088,2470.74,2023-7-09T14:12:45Z
2023-07-09T12:13:32Z,42.805,6.029,13.3026,4.60088,2470.754,2023-7-09T14:15:48Z
2023-07-09T12:16:35Z,42.805,6.029,13.3027,4.60089,2470.73,2023-7-09T14:18:51Z
2023-07-09T12:19:38Z,42.805,6.029,13.3028,4.60088,2470.754,2023-7-09T14:21:54Z
2023-07-09T12:22:41Z,42.805,6.029,13.3025,4.60095,2470.693,2023-7-09T14:24:57Z
2023-07-09T12:25:44Z,42.805,6.029,13.3031,4.60088,2470.717,2023-7-09T14:28:00Z
2023-07-09T12:28:47Z,42.805,6.029,13.3029,4.60090,2470.73,2023-7-09T14:31:03Z
2023-07-09T12:31:50Z,42.805,6.029,13.3026,4.60088,2470.693,2023-7-09T14:34:06Z
2023-07-09T12:34:53Z,42.805,6.029,13.3029,4.60087,2470.717,2023-7-09T14:37:09Z
2023-07-09T12:37:56Z,42.805,6.029,13.3026,4.60087,2470.717,2023-7-09T14:40:12Z
2023-07-09T12:40:59Z,42.805,6.029,13.3025,4.60088,2470.73,2023-7-09T14:43:16Z
2023-07-09T12:44:02Z,42.805,6.029,13.3028,4.60087,2470.693,2023-7-09T14:46:19Z
2023-07-09T12:47:06Z,42.805,6.029,13.3027,4.60089,2470.717,2023-7-09T14:49:22Z
2023-07-09T12:50:09Z,42.805,6.029,13.3028,4.60087,2470.74,2023-7-09T14:52:25Z
2023-07-09T12:53:12Z,42.805,6.029,13.3027,4.60087,2470.717,2023-7-09T14:55:28Z
2023-07-09T12:56:15Z,42.805,6.029,13.3032,4.60088,2470.717,2023-7-09T14:58:31Z
2023-07-09T12:59:18Z,42.805,6.029,13.3028,4.60087,2470.74,2023-7-09T15:01:34Z
2023-07-09T13:02:21Z,42.805,6.029,13.3028,4.60099,2470.693,2023-7-09T15:04:37Z
2023-07-09T13:05:24Z,42.805,6.029,13.3029,4.60087,2470.707,2023-7-09T15:07:40Z
2023-07-09T13:08:27Z,42.805,6.029,13.3026,4.60087,2470.73,2023-7-09T15:10:43Z
2023-07-09T13:11:30Z,42.805,6.029,13.3026,4.60087,2470.74,2023-7-09T15:13:46Z
2023-07-09T13:14:33Z,42.805,6.029,13.3027,4.60087,2470.74,2023-7-09T15:16:49Z
2023-07-09T13:17:36Z,42.805,6.029,13.3024,4.60087,2470.73,2023-7-09T15:19:53Z
2023-07-09T13:20:39Z,42.805,6.029,13.3027,4.60097,2470.717,2023-7-09T15:22:56Z
2023-07-09T13:23:43Z,42.805,6.029,13.3025,4.60087,2470.74,2023-7-09T15:25:59Z
2023-07-09T13:26:46Z,42.805,6.029,13.3029,4.60088,2470.74,2023-7-09T15:29:02Z
2023-07-09T13:29:49Z,42.805,6.029,13.3029,4.60089,2470.717,2023-7-09T15:32:05Z
2023-07-09T13:32:52Z,42.805,6.029,13.3031,4.60088,2470.717,2023-7-09T15:35:08Z
2023-07-09T13:35:55Z,42.805,6.029,13.3027,4.60088,2470.707,2023-7-09T15:38:11Z
2023-07-09T13:38:58Z,42.805,6.029,13.3026,4.60087,2470.74,2023-7-09T15:41:14Z
2023-07-09T13:42:01Z,42.805,6.029,13.3027,4.60088,2470.73,2023-7-09T15:44:17Z
2023-07-09T13:45:04Z,42.805,6.029,13.3030,4.60088,2470.717,2023-7-09T15:47:20Z
2023-07-09T13:48:07Z,42.805,6.029,13.3026,4.60089,2470.73,2023-7-09T15:50:23Z
2023-07-09T13:51:10Z,42.805,6.029,13.3031,4.60097,2470.754,2023-7-09T15:53:27Z
2023-07-09T13:54:13Z,42.805,6.029,13.3025,4.60089,2470.73,2023-7-09T15:56:30Z
2023-07-09T13:57:17Z,42.805,6.029,13.3031,4.60087,2470.693,2023-7-09T15:59:33Z
2023-07-09T14:00:20Z,42.805,6.029,13.3026,4.60087,2470.707,2023-7-09T16:02:36Z
2023-07-09T14:03:23Z,42.805,6.029,13.3026,4.60090,2470.67,2023-7-09T16:05:39Z
2023-07-09T14:06:26Z,42.805,6.029,13.3028,4.60089,2470.73,2023-7-09T16:08:42Z
2023-07-09T14:09:29Z,42.805,6.029,13.3022,4.60087,2470.717,2023-7-09T16:11:45Z
2023-07-09T14:12:32Z,42.805,6.029,13.3025,4.60087,2470.717,2023-7-09T16:14:48Z
2023-07-09T14:15:35Z,42.805,6.029,13.3025,4.60091,2470.693,2023-7-09T16:17:51Z
2023-07-09T14:18:38Z,42.805,6.029,13.3029,4.60086,2470.717,2023-7-09T16:20:54Z
2023-07-09T14:21:41Z,42.805,6.029,13.3029,4.60088,2470.67,2023-7-09T16:23:57Z
2023-07-09T14:24:44Z,42.805,6.029,13.3026,4.60094,2470.693,2023-7-09T16:27:00Z
2023-07-09T14:27:47Z,42.805,6.029,13.3027,4.60094,2470.707,2023-7-09T16:30:03Z
2023-07-09T14:30:52Z,42.805,6.029,13.3027,4.60088,2470.693,2023-7-09T16:33:08Z
2023-07-09T14:33:55Z,42.805,6.029,13.3028,4.60087,2470.73,2023-7-09T16:36:11Z
2023-07-09T14:36:58Z,42.805,6.029,13.3029,4.60090,2470.693,2023-7-09T16:39:14Z
2023-07-09T14:40:01Z,42.805,6.029,13.3031,4.60090,2470.707,2023-7-09T16:42:17Z
2023-07-09T14:43:04Z,42.805,6.029,13.3028,4.60087,2470.67,2023-7-09T16:45:20Z
2023-07-09T14:46:07Z,42.805,6.029,13.3026,4.60087,2470.693,2023-7-09T16:48:23Z
2023-07-09T14:49:10Z,42.805,6.029,13.3025,4.60087,2470.67,2023-7-09T16:51:27Z
2023-07-09T14:52:13Z,42.805,6.029,13.3023,4.60087,2470.707,2023-7-09T16:54:30Z
2023-07-09T14:55:16Z,42.805,6.029,13.3028,4.60087,2470.693,2023-7-09T16:57:33Z
2023-07-09T14:58:20Z,42.805,6.029,13.3028,4.60087,2470.693,2023-7-09T17:00:36Z
2023-07-09T15:01:23Z,42.805,6.029,13.3024,4.60087,2470.67,2023-7-09T17:03:39Z
2023-07-09T15:04:26Z,42.805,6.029,13.3028,4.60087,2470.693,2023-7-09T17:06:42Z
2023-07-09T15:07:29Z,42.805,6.029,13.3029,4.60087,2470.693,2023-7-09T17:09:45Z
2023-07-09T15:10:32Z,42.805,6.029,13.3027,4.60088,2470.707,2023-7-09T17:12:48Z
2023-07-09T15:13:35Z,42.805,6.029,13.3028,4.60087,2470.684,2023-7-09T17:15:51Z